Simultaneous Nadir Overpasses (SNOs) Predictions

Prediction of SNOs between GOES-14 and NOAA-20 Satellite Orbit:

Table of predicted SNOs for the next 14.0 days since TLE Epoch: 5/31/2019
Index Date Time (GOES-14) GOES-14 Lat,Lon NOAA-20 Lat,Lon Distance(km) Time Diff (sec)
1 06/02/2019 08:24:01 0.03,-104.43 0.19,-105.08 74.25 80
2 06/03/2019 08:07:57 0.04,-104.44 -0.85,-100.55 443.15 80
3 06/04/2019 20:27:13 -0.01,-104.56 -0.30,-105.86 148.65 80
4 06/05/2019 20:08:27 -0.03,-104.56 0.69,-101.33 367.95 80
5 06/07/2019 08:30:15 0.00,-104.43 0.48,-106.60 246.60 80
6 06/08/2019 08:14:09 0.02,-104.44 -0.51,-102.06 270.61 80
7 06/09/2019 20:33:25 0.01,-104.57 -0.64,-107.37 319.98 80
8 06/10/2019 20:17:21 -0.00,-104.57 0.41,-102.85 196.90 80
9 06/12/2019 08:36:27 -0.02,-104.44 0.82,-108.10 418.52 80
10 06/13/2019 08:20:23 -0.01,-104.44 -0.22,-103.58 98.88 80




NCC Satellite Simultaneous Nadir Overpasses (SNOs) Prediction Service
